OK1HRA-8 Weather Reports


time (UTC)temp
C
wind
direction
speed
KPH
gust
KPH
rain 1hr
cm
rain 24hr
cm
rain mn
cm
humidity
%
barometer
mb
20260509015232 6 45 0.0 0.0 0.00 0.00 0.00 9 1006.0
20260509014724 6 45 0.0 0.0 0.00 0.00 0.00 9 1006.2
20260509014217 6 45 0.0 0.0 0.00 0.00 0.00 9 1006.0
20260509013709 6 45 0.0 0.0 0.00 0.00 0.00 9 1005.3
20260509013202 6 45 0.0 0.0 0.00 0.00 0.00 9 1005.3
20260509012655 6 45 0.0 0.0 0.00 0.00 0.00 9 1005.2
20260509012148 6 45 0.0 0.0 0.00 0.00 0.00 8 1005.5
20260509011640 6 45 0.0 0.0 0.00 0.00 0.00 9 1005.3
20260509011132 6 45 0.0 0.0 0.00 0.00 0.00 8 1006.0
20260509010625 7 45 0.0 0.0 0.00 0.00 0.00 8 1005.6
20260509010117 7 45 0.0 0.0 0.00 0.00 0.00 8 1004.9
20260509005609 7 -1 0.0 0.0 0.00 0.00 0.00 8 1005.3
20260509005102 7 67 0.0 0.0 0.00 0.00 0.00 8 1006.7
20260509004554 7 45 0.0 0.0 0.00 0.00 0.00 9 1005.6
20260509004046 7 45 0.0 0.0 0.00 0.00 0.00 9 1005.0
20260509003539 7 67 0.0 0.0 0.00 0.00 0.00 8 1004.7
20260509003032 7 45 0.0 0.0 0.00 0.00 0.00 8 1004.8
20260509002524 7 -1 0.0 0.0 0.00 0.00 0.00 8 1005.1
20260509002017 7 90 0.0 0.0 0.00 0.00 0.00 8 1005.8
20260509001510 7 45 0.0 0.0 0.00 0.00 0.00 9 1005.5
20260509001003 7 45 0.0 0.0 0.00 0.00 0.00 9 1005.5
20260509000455 7 67 0.0 0.0 0.00 0.00 0.00 9 1004.7
20260508235948 7 45 8.0 9.7 0.00 0.00 0.00 9 1004.1
20260508235441 7 90 0.0 0.0 0.00 0.00 0.00 8 1004.5
20260508234934 7 45 8.0 4.8 0.00 0.00 0.00 8 1005.1
20260508234426 7 90 6.4 12.9 0.00 0.00 0.00 8 1005.1
20260508233919 7 45 0.0 0.0 0.00 0.00 0.00 8 1004.8
20260508233412 7 90 4.8 4.8 0.00 0.00 0.00 8 1005.3
20260508232905 7 -1 0.0 0.0 0.00 0.00 0.00 8 1004.2
20260508232358 7 -1 0.0 0.0 0.00 0.00 0.00 8 1005.1
20260508231851 7 -1 0.0 0.0 0.00 0.00 0.00 8 1004.7
20260508231343 7 90 0.0 0.0 0.00 0.00 0.00 8 1004.3
20260508230835 7 45 0.0 0.0 0.00 0.00 0.00 8 1004.8
20260508230327 7 67 0.0 0.0 0.00 0.00 0.00 8 1004.4
20260508225820 7 45 0.0 0.0 0.00 0.00 0.00 8 1004.1
20260508225313 7 45 0.0 0.0 0.00 0.00 0.00 8 1005.0
20260508224806 7 45 0.0 0.0 0.00 0.00 0.00 8 1004.9
20260508224258 7 45 0.0 0.0 0.00 0.00 0.00 8 1004.2
20260508223751 7 90 0.0 0.0 0.00 0.00 0.00 8 1004.9
20260508223244 7 90 0.0 0.0 0.00 0.00 0.00 8 1004.1
20260508222737 7 45 0.0 0.0 0.00 0.00 0.00 8 1004.4
20260508222230 7 -1 0.0 0.0 0.00 0.00 0.00 8 1004.1
20260508221723 7 90 0.0 0.0 0.00 0.00 0.00 8 1005.1
20260508221216 7 90 0.0 0.0 0.00 0.00 0.00 8 1005.5
20260508220709 7 45 0.0 0.0 0.00 0.00 0.00 8 1004.8
20260508220202 7 45 0.0 0.0 0.00 0.00 0.00 8 1004.7
20260508215655 7 45 0.0 0.0 0.00 0.00 0.00 8 1004.6
20260508215148 7 45 0.0 0.0 0.00 0.00 0.00 8 1005.2
20260508214641 7 45 8.0 11.3 0.00 0.00 0.00 8 1005.4
20260508214133 7 45 9.7 14.5 0.00 0.00 0.00 9 1005.1
20260508213626 7 45 8.0 12.9 0.00 0.00 0.00 9 1005.5
20260508213119 7 45 9.7 12.9 0.00 0.00 0.00 9 1005.3
20260508212611 7 45 8.0 11.3 0.00 0.00 0.00 9 1005.4
20260508212103 7 45 11.3 17.7 0.00 0.00 0.00 9 1005.5
20260508211556 7 45 9.7 16.1 0.00 0.00 0.00 9 1005.6
20260508211049 7 45 12.9 17.7 0.00 0.00 0.00 9 1005.8
20260508210542 7 -1 12.9 19.3 0.00 0.00 0.00 9 1005.8
20260508210034 7 -1 11.3 17.7 0.00 0.00 0.00 9 1005.9
20260508205526 7 45 11.3 16.1 0.00 0.00 0.00 9 1006.2
20260508205018 7 0 11.3 16.1 0.00 0.00 0.00 9 1006.5
20260508204510 7 0 9.7 16.1 0.00 0.00 0.00 9 1006.1
20260508204002 7 45 0.0 0.0 0.00 0.00 0.00 9 1006.6
20260508203455 7 0 8.0 16.1 0.00 0.00 0.00 9 1006.9
20260508202948 7 0 9.7 14.5 0.00 0.00 0.00 9 1007.1
20260508202440 7 45 9.7 17.7 0.00 0.00 0.00 9 1006.9
20260508201933 7 0 11.3 17.7 0.00 0.00 0.00 9 1006.9
20260508201426 7 0 0.0 0.0 0.00 0.00 0.00 9 1006.3
20260508200918 7 45 9.7 16.1 0.00 0.00 0.00 9 1006.7
20260508200410 7 45 8.0 17.7 0.00 0.00 0.00 9 1006.3
20260508195902 7 45 8.0 14.5 0.00 0.00 0.00 9 1006.7
20260508195354 7 45 11.3 19.3 0.00 0.00 0.00 9 1006.5
20260508194847 8 0 11.3 17.7 0.00 0.00 0.00 9 1006.2
20260508194340 8 45 14.5 24.1 0.00 0.00 0.00 9 1005.8
20260508193833 8 45 9.7 16.1 0.00 0.00 0.00 9 1005.7
20260508193326 8 90 9.7 19.3 0.00 0.00 0.00 9 1005.5
20260508192818 8 45 9.7 14.5 0.00 0.00 0.00 9 1005.6
20260508192311 8 45 12.9 17.7 0.00 0.00 0.00 9 1005.5
20260508191804 8 -1 11.3 17.7 0.00 0.00 0.00 8 1005.6
20260508191256 8 45 11.3 17.7 0.00 0.00 0.00 9 1005.6
20260508190748 8 45 11.3 17.7 0.00 0.00 0.00 9 1005.8
20260508190241 8 45 12.9 20.9 0.00 0.00 0.00 9 1005.6
20260508185733 8 -1 12.9 22.5 0.00 0.00 0.00 9 1005.5
20260508185225 8 -1 14.5 22.5 0.00 0.00 0.00 9 1005.3
20260508184717 8 45 12.9 17.7 0.00 0.00 0.00 9 1005.4
20260508184210 9 45 14.5 20.9 0.00 0.00 0.00 8 1004.7
20260508183703 9 45 12.9 19.3 0.00 0.00 0.00 8 1004.8
20260508183156 9 45 12.9 19.3 0.00 0.00 0.00 8 1005.1
20260508182649 9 45 14.5 20.9 0.00 0.00 0.00 8 1004.6
20260508182142 9 45 9.7 14.5 0.00 0.00 0.00 8 1004.7
20260508181635 10 45 11.3 17.7 0.00 0.00 0.00 8 1004.2
20260508181128 10 45 14.5 22.5 0.00 0.00 0.00 8 1004.4
20260508180620 10 45 14.5 22.5 0.00 0.00 0.00 8 1003.7
20260508180113 10 45 12.9 17.7 0.00 0.00 0.00 8 1003.7
20260508175606 10 45 12.9 19.3 0.00 0.00 0.00 8 1004.2
20260508175059 10 45 14.5 20.9 0.00 0.00 0.00 8 1004.2
20260508174552 10 -1 16.1 25.7 0.00 0.00 0.00 8 1004.0
20260508174045 10 45 19.3 29.0 0.00 0.00 0.00 8 1003.3
20260508173538 10 45 19.3 25.7 0.00 0.00 0.00 8 1003.3
20260508173031 10 45 17.7 27.4 0.00 0.00 0.00 8 1002.7
20260508172524 11 45 14.5 24.1 0.00 0.00 0.00 8 1003.2
20260508172017 11 -1 14.5 24.1 0.00 0.00 0.00 8 1003.4
20260508171510 11 315 11.3 22.5 0.00 0.00 0.00 8 1003.1
20260508171002 11 -1 16.1 24.1 0.00 0.00 0.00 7 1002.9
20260508170455 11 -1 17.7 27.4 0.00 0.00 0.00 7 1002.6
20260508165948 11 -1 14.5 25.7 0.00 0.00 0.00 7 1002.4
20260508165441 11 45 14.5 22.5 0.00 0.00 0.00 7 1003.1
20260508164933 11 -1 14.5 22.5 0.00 0.00 0.00 7 1003.3
20260508164426 11 45 12.9 19.3 0.00 0.00 0.00 7 1003.3
20260508163919 11 90 12.9 22.5 0.00 0.00 0.00 7 1002.9
20260508163412 11 45 12.9 17.7 0.00 0.00 0.00 7 1003.4
20260508162904 11 0 12.9 19.3 0.00 0.00 0.00 7 1003.1
20260508162356 11 -1 11.3 17.7 0.00 0.00 0.00 7 1003.3
20260508161849 11 -1 14.5 22.5 0.00 0.00 0.00 7 1002.5
20260508161342 11 -1 16.1 22.5 0.00 0.00 0.00 7 1002.4
20260508160834 11 -1 12.9 22.5 0.00 0.00 0.00 7 1002.3
20260508160327 11 -1 12.9 19.3 0.00 0.00 0.00 7 1002.6
20260508155820 11 45 12.9 19.3 0.00 0.00 0.00 7 1002.3
20260508155313 11 45 12.9 20.9 0.00 0.00 0.00 7 1001.9
20260508154805 11 -1 14.5 20.9 0.00 0.00 0.00 7 1002.0
20260508154257 11 45 14.5 22.5 0.00 0.00 0.00 7 1002.7
20260508153750 11 45 14.5 17.7 0.00 0.00 0.00 7 1002.2
20260508153243 12 -1 6.4 11.3 0.00 0.00 0.00 7 1002.5
20260508152736 11 0 9.7 17.7 0.00 0.00 0.00 7 1002.3
20260508152229 11 -1 12.9 20.9 0.00 0.00 0.00 7 1002.2
20260508151721 11 -1 11.3 17.7 0.00 0.00 0.00 7 1001.7
20260508151213 12 -1 9.7 19.3 0.00 0.00 0.00 7 1002.1
20260508150706 11 0 12.9 19.3 0.00 0.00 0.00 7 1002.2
20260508150159 12 315 9.7 17.7 0.00 0.00 0.00 7 1002.4
20260508145652 11 45 16.1 22.5 0.00 0.00 0.00 7 1001.0
20260508145145 12 45 12.9 20.9 0.00 0.00 0.00 7 1002.4
20260508144637 12 45 16.1 22.5 0.00 0.00 0.00 7 1000.9
20260508144130 12 45 16.1 24.1 0.00 0.00 0.00 7 1001.5
20260508143623 12 0 9.7 16.1 0.00 0.00 0.00 7 1002.1
20260508143116 12 0 11.3 12.9 0.00 0.00 0.00 6 1001.8
20260508142609 12 45 6.4 11.3 0.00 0.00 0.00 7 1002.1
20260508142102 11 45 11.3 17.7 0.00 0.00 0.00 7 1002.0
20260508141555 12 45 11.3 19.3 0.00 0.00 0.00 7 1001.5
20260508141048 12 45 9.7 14.5 0.00 0.00 0.00 6 1002.0
20260508140540 12 45 9.7 12.9 0.00 0.00 0.00 6 1001.4
20260508140033 12 45 12.9 19.3 0.00 0.00 0.00 6 1001.4
20260508135526 12 -1 11.3 19.3 0.00 0.00 0.00 6 1002.2
20260508135018 12 45 12.9 20.9 0.00 0.00 0.00 6 1002.3
20260508134510 12 45 11.3 17.7 0.00 0.00 0.00 7 1001.2
20260508134003 12 45 14.5 16.1 0.00 0.00 0.00 6 1000.3
20260508133456 12 -1 4.8 6.4 0.00 0.00 0.00 6 1000.6
20260508132948 12 0 9.7 16.1 0.00 0.00 0.00 6 1000.5
20260508132441 12 337 9.7 16.1 0.00 0.00 0.00 6 1001.2
20260508131933 12 45 0.0 0.0 0.00 0.00 0.00 6 1001.0
20260508131425 12 45 0.0 0.0 0.00 0.00 0.00 6 1001.5
20260508130918 12 315 8.0 14.5 0.00 0.00 0.00 6 1001.0
20260508130411 12 90 0.0 0.0 0.00 0.00 0.00 6 1002.2
20260508125904 12 0 11.3 12.9 0.00 0.00 0.00 6 1000.9
20260508125357 12 45 0.0 0.0 0.00 0.00 0.00 6 1000.4
20260508124850 11 45 11.3 20.9 0.00 0.00 0.00 6 1000.2
20260508124343 12 0 9.7 16.1 0.00 0.00 0.00 6 1001.1
20260508123836 12 0 9.7 12.9 0.00 0.00 0.00 6 1001.4
20260508123329 12 0 6.4 9.7 0.00 0.00 0.00 6 1000.6
20260508122822 12 0 9.7 14.5 0.00 0.00 0.00 6 998.7
20260508122314 12 0 0.0 0.0 0.00 0.00 0.00 6 1001.2
20260508121806 11 315 9.7 14.5 0.00 0.00 0.00 7 1000.4
20260508121259 11 315 9.7 14.5 0.00 0.00 0.00 6 999.5
20260508120751 12 315 8.0 11.3 0.00 0.00 0.00 6 1001.5
20260508120244 11 45 9.7 17.7 0.00 0.00 0.00 6 1000.3
20260508115737 11 315 12.9 17.7 0.00 0.00 0.00 6 1000.1
20260508115230 12 315 8.0 14.5 0.00 0.00 0.00 7 1001.5
20260508114723 11 315 11.3 17.7 0.00 0.00 0.00 6 999.3
20260508114215 11 0 8.0 16.1 0.00 0.00 0.00 7 999.3
20260508113708 11 315 8.0 12.9 0.00 0.00 0.00 7 1001.0
20260508113200 11 0 9.7 16.1 0.00 0.00 0.00 7 1001.2
20260508112653 11 0 11.3 17.7 0.00 0.00 0.00 6 1000.7
20260508112145 11 45 9.7 16.1 0.00 0.00 0.00 6 1001.3
20260508111638 11 0 9.7 17.7 0.00 0.00 0.00 7 1001.9
20260508111131 11 0 9.7 17.7 0.00 0.00 0.00 8 1003.4
20260508110624 11 0 11.3 17.7 0.00 0.00 0.00 7 1001.9
20260508110117 11 0 9.7 20.9 0.00 0.00 0.00 7 1001.6
20260508105609 11 315 9.7 16.1 0.00 0.00 0.00 7 1002.4
20260508105102 11 90 8.0 12.9 0.00 0.00 0.00 7 1001.9
20260508104555 11 0 11.3 20.9 0.00 0.00 0.00 7 1000.8
20260508104047 10 90 14.5 20.9 0.00 0.00 0.00 7 1000.5
20260508103540 11 0 12.9 19.3 0.00 0.00 0.00 7 999.5
20260508103033 11 0 0.0 0.0 0.00 0.00 0.00 7 1000.5
20260508102526 11 0 6.4 8.0 0.00 0.00 0.00 7 999.7
20260508102019 11 -1 11.3 17.7 0.00 0.00 0.00 6 999.7
20260508101512 11 315 0.0 0.0 0.00 0.00 0.00 5 1005.7
20260508101005 11 0 0.0 0.0 0.00 0.00 0.00 7 1000.7
20260508100458 11 -1 0.0 0.0 0.00 0.00 0.00 6 999.6
20260508095950 10 90 0.0 0.0 0.00 0.00 0.00 6 1003.6
20260508095443 11 -1 0.0 0.0 0.00 0.00 0.00 6 1002.7
20260508094935 10 45 0.0 0.0 0.00 0.00 0.00 6 1001.2
20260508094428 10 90 0.0 0.0 0.00 0.00 0.00 6 1003.7
20260508093921 10 0 0.0 0.0 0.00 0.00 0.00 7 1001.8
20260508093414 10 45 0.0 0.0 0.00 0.00 0.00 7 1002.7
20260508092907 10 45 0.0 0.0 0.00 0.00 0.00 7 1001.4
20260508092400 10 45 0.0 0.0 0.00 0.00 0.00 7 1002.1
20260508091853 10 45 0.0 0.0 0.00 0.00 0.00 7 1003.4
20260508091345 10 0 0.0 0.0 0.00 0.00 0.00 7 1000.3
20260508090837 10 45 0.0 0.0 0.00 0.00 0.00 7 1004.6
20260508090329 10 90 0.0 0.0 0.00 0.00 0.00 7 1005.8
20260508085822 9 135 0.0 0.0 0.00 0.00 0.00 7 1004.2
20260508085314 9 45 0.0 0.0 0.00 0.00 0.00 7 1003.0
20260508084807 9 0 0.0 0.0 0.00 0.00 0.00 7 1002.9
20260508084300 9 90 0.0 0.0 0.00 0.00 0.00 7 1002.8
20260508083752 9 0 0.0 0.0 0.00 0.00 0.00 7 1000.5
20260508083245 8 45 0.0 0.0 0.00 0.00 0.00 7 1002.6
20260508082738 9 45 0.0 0.0 0.00 0.00 0.00 7 1002.2
20260508082230 9 90 0.0 0.0 0.00 0.00 0.00 7 1004.7
20260508081722 9 45 0.0 0.0 0.00 0.00 0.00 7 1002.6
20260508081215 8 90 0.0 0.0 0.00 0.00 0.00 7 1006.2
20260508080707 8 45 0.0 0.0 0.00 0.00 0.00 7 1001.6
20260508080200 8 45 0.0 0.0 0.00 0.00 0.00 7 1001.3
20260508075653 8 0 0.0 0.0 0.00 0.00 0.00 8 1001.6
20260508075146 8 45 0.0 0.0 0.00 0.00 0.00 8 1001.5
20260508074638 8 90 0.0 0.0 0.00 0.00 0.00 8 1004.1
20260508074130 8 45 0.0 0.0 0.00 0.00 0.00 8 1001.8
20260508073622 8 45 0.0 0.0 0.00 0.00 0.00 7 1001.6
20260508073114 8 90 0.0 0.0 0.00 0.00 0.00 7 1001.6
20260508072607 8 -1 0.0 0.0 0.00 0.00 0.00 7 1004.1
20260508072059 7 90 0.0 0.0 0.00 0.00 0.00 7 1004.6
20260508071552 7 135 0.0 0.0 0.00 0.00 0.00 7 1004.4
20260508071045 7 45 0.0 0.0 0.00 0.00 0.00 7 1004.1
20260508070537 7 90 0.0 0.0 0.00 0.00 0.00 7 1005.1
20260508070030 7 45 0.0 0.0 0.00 0.00 0.00 8 1003.2
20260508065522 7 45 0.0 0.0 0.00 0.00 0.00 8 1001.9
20260508065015 7 45 0.0 0.0 0.00 0.00 0.00 8 1003.4
20260508064507 7 45 0.0 0.0 0.00 0.00 0.00 7 1001.6
20260508064000 7 90 0.0 0.0 0.00 0.00 0.00 8 1003.5
20260508063453 7 0 0.0 0.0 0.00 0.00 0.00 8 1002.4
20260508062946 7 45 0.0 0.0 0.00 0.00 0.00 8 1002.5
20260508062438 7 45 0.0 0.0 0.00 0.00 0.00 8 1002.1
20260508061931 7 45 0.0 0.0 0.00 0.00 0.00 8 1001.9
20260508061424 7 45 0.0 0.0 0.00 0.00 0.00 8 1001.3
20260508060917 7 45 0.0 0.0 0.00 0.00 0.00 8 1002.5
20260508060410 7 45 0.0 0.0 0.00 0.00 0.00 8 1001.4
20260508055903 7 0 0.0 0.0 0.00 0.00 0.00 8 1002.4
20260508055356 7 45 0.0 0.0 0.00 0.00 0.00 8 1002.0
20260508054848 7 45 0.0 0.0 0.00 0.00 0.00 9 1002.0
20260508054341 7 45 0.0 0.0 0.00 0.00 0.00 8 1002.2
20260508053834 7 45 0.0 0.0 0.00 0.00 0.00 8 1002.1
20260508053327 7 0 0.0 0.0 0.00 0.00 0.00 9 1003.1
20260508052820 7 -1 0.0 0.0 0.00 0.00 0.00 9 1002.9
20260508052313 7 45 0.0 0.0 0.00 0.00 0.00 9 1003.1
20260508051806 7 0 0.0 0.0 0.00 0.00 0.00 9 1002.4
20260508051259 7 0 0.0 0.0 0.00 0.00 0.00 9 1002.0
20260508050752 7 45 0.0 0.0 0.00 0.00 0.00 9 1002.4
20260508050245 7 -1 0.0 0.0 0.00 0.00 0.00 9 1002.3
20260508045737 7 45 0.0 0.0 0.00 0.00 0.00 9 1002.1
20260508045230 7 45 0.0 0.0 0.00 0.00 0.00 9 1001.3
20260508044723 7 45 0.0 0.0 0.00 0.00 0.00 9 1000.6
20260508044216 7 90 0.0 0.0 0.00 0.00 0.00 8 1001.1
20260508043709 7 90 0.0 0.0 0.00 0.00 0.00 8 1003.4
20260508043202 7 90 0.0 0.0 0.00 0.00 0.00 8 1000.7
20260508042655 7 45 0.0 0.0 0.00 0.00 0.00 8 1001.4
20260508042147 7 45 0.0 0.0 0.00 0.00 0.00 8 1000.6
20260508041639 7 90 0.0 0.0 0.00 0.00 0.00 8 1000.5
20260508041132 7 90 0.0 0.0 0.00 0.00 0.00 8 1001.7
20260508040624 7 90 0.0 0.0 0.00 0.00 0.00 9 1000.5
20260508040117 7 90 0.0 0.0 0.00 0.00 0.00 8 1001.0
20260508035610 7 -1 0.0 0.0 0.00 0.00 0.00 8 1001.5
20260508035103 7 45 0.0 0.0 0.00 0.00 0.00 8 1000.6
20260508034556 7 90 0.0 0.0 0.00 0.00 0.00 8 1000.4
20260508034049 7 -1 0.0 0.0 0.00 0.00 0.00 8 1002.3
20260508033542 7 90 0.0 0.0 0.00 0.00 0.00 8 1002.5
20260508033035 7 90 0.0 0.0 0.00 0.00 0.00 9 1001.7
20260508032527 7 45 0.0 0.0 0.00 0.00 0.00 9 1000.7
20260508032020 7 90 0.0 0.0 0.00 0.00 0.00 8 1001.2
20260508031513 7 45 0.0 0.0 0.00 0.00 0.00 8 1001.3
20260508031006 7 -1 0.0 0.0 0.00 0.00 0.00 8 1000.8
20260508030459 7 45 0.0 0.0 0.00 0.00 0.00 8 1000.6
20260508025952 7 90 0.0 0.0 0.00 0.00 0.00 8 1003.7
20260508025445 7 45 0.0 0.0 0.00 0.00 0.00 9 1002.0
20260508024938 7 45 0.0 0.0 0.00 0.00 0.00 9 1002.3
20260508024431 7 45 0.0 0.0 0.00 0.00 0.00 9 1002.4
20260508023924 7 45 0.0 0.0 0.00 0.00 0.00 9 1001.7
20260508023417 7 45 0.0 0.0 0.00 0.00 0.00 9 1001.9
20260508022910 7 45 0.0 0.0 0.00 0.00 0.00 9 1001.1
20260508022403 7 45 0.0 0.0 0.00 0.00 0.00 9 1001.7
20260508021856 7 45 0.0 0.0 0.00 0.00 0.00 9 1001.5
20260508021349 7 45 0.0 0.0 0.00 0.00 0.00 9 1001.6
20260508020842 7 45 0.0 0.0 0.00 0.00 0.00 9 1001.4
20260508020335 7 45 0.0 0.0 0.00 0.00 0.00 9 1002.3
20260508015827 7 45 0.0 0.0 0.00 0.00 0.00 9 1001.8
20260508015320 7 0 0.0 0.0 0.00 0.00 0.00 9 1002.1